Regional Weather Roundup
Issued by NWS

Home | Current Version | Previous Version | Graphics & Text | Print | Product List | Glossary On
Versions: 1 2 3 4 5 6 7 8 9 10 11 12 13 14 15 16 17 18 19 20 21 22 23 24 25 26 27 28 29 30 31 32 33 34 35 36 37 38 39 40 41 42 43 44 45 46 47 48 49 50
000
ASUS43 KMKX 201120
RWRWI

WISCONSIN REGIONAL WEATHER ROUNDUP
NATIONAL WEATHER SERVICE MILWAUKEE/SULLIVAN WI
500 AM CST TUE FEB 20 2018

NOTE: "FAIR" INDICATES FEW OR NO CLOUDS BELOW 12,000 FEET WITH NO
SIGNIFICANT WEATHER AND/OR OBSTRUCTIONS TO VISIBILITY.

WIZ001-002-006>008-014>016-023>028-201200-
NORTHWEST WISCONSIN

CITY           SKY/WX    TMP DP  RH WIND       PRES   REMARKS
SUPERIOR ARPT  MIX PCPN  21  20  93 NE8       29.91R WCI  12
ASHLAND        FRZ RAIN  20  18  92 NE9       29.87F FOG     WCI   9
HAYWARD        MIX PCPN  19  16  88 NE6       29.81F WCI  11
SIREN          LGT SNOW  19  17  91 N5        29.87R VSB 1   WCI  12
CUMBERLAND     LGT SNOW  19  16  86 N5        29.80F WCI  13
RICE LAKE      CLOUDY    19  18  96 N5        29.81S WCI  13
CHETEK         FLURRIES  19  18  93 CALM      29.80S
LADYSMITH      CLOUDY    21  19  93 NE5       29.79F WCI  14
EAU CLAIRE     CLOUDY    21  19  92 CALM      29.81R
MENOMONIE      FLURRIES  22  20  93 NW3       29.83R
NEW RICHMOND   LGT SNOW  19  17  88 NW3       29.84R
OSCEOLA        LGT SNOW  20  20 100 NW6       29.89R WCI  13
$$

WIZ003>005-009-010-017-018-201200-
NORTH CENTRAL WISCONSIN

CITY           SKY/WX    TMP DP  RH WIND       PRES   REMARKS
MANITOWISH WTR CLOUDY    19  19 100 NE5       29.78R WCI  12
ARBOR VITAE    CLOUDY    22  20  93 CALM      29.78R
WOODRUFF       CLOUDY    22  20  93 CALM      29.78R
RHINELANDER    CLOUDY    22  21  96 E5        29.79R WCI  16
EAGLE RIVER    CLOUDY    21  21 100 E3        29.78R
LAND O LAKES   CLOUDY    21  20  96 CALM      29.79S FOG
PHILLIPS       CLOUDY    19  19 100 CALM      29.77F FOG
TOMAHAWK       CLOUDY    21  20  96 CALM      29.78S FOG
MEDFORD        MIX PCPN  23  22  95 E9        29.75F WCI  13
MERRILL        LGT SNOW  24  24 100 NE3       29.79R
$$

WIZ029-030-035-036-043>047-201200-
CENTRAL WISCONSIN

CITY           SKY/WX    TMP DP  RH WIND       PRES   REMARKS
WAUSAU         FRZ RAIN  26  26 100 CALM      29.78R FOG
MOSINEE        MIX PCPN  28  28 100 CALM      29.83R
MARSHFIELD     FRZ RAIN  28  27  96 E14       29.73F FOG     WCI  17
STEVENS POINT  MIX PCPN  26  26 100 CALM      29.82R
WAUPACA        MIX PCPN  30  28  93 CALM      29.81R
WAUTOMA        LGT SNOW  30  30 100 VRB5      29.84R FOG     WCI  25
WISC RAPIDS    FRZ RAIN  28  26  92 E10       29.79R WCI  19
CAMP DOUGLAS   FRZ RAIN  30  30 100 CALM      29.74F FOG
$$

WIZ011>013-019>022-031-037>040-048>050-201200-
NORTHEAST WISCONSIN

CITY           SKY/WX    TMP DP  RH WIND       PRES   REMARKS
ANTIGO         MIX PCPN  24  24 100 E5        29.79R WCI  19
SHAWANO        CLOUDY    30  29  94 N3        29.82R FOG
OCONTO         CLOUDY    30  29  98 NE6       29.80R WCI  24
STURGEON BAY   MIX PCPN  32  32 100 N6        29.78F VSB 1/2 WCI  26
GREEN BAY      CLOUDY    30  28  92 NE17      29.78F FOG     WCI  18
MANITOWOC      MIX PCPN  32  31  96 NW5       29.77F VSB 3/4 WCI  27
APPLETON       FOG       30  30 100 CALM      29.76R VSB 1/2
CLINTONVILLE   CLOUDY    29  28  96 NW3       29.83R FOG
OSHKOSH        FRZ RAIN  30  30 100 N6        29.78S VSB 1/4 WCI  24
$$

WIZ032>034-041-042-053>061-201200-
SOUTHWEST WISCONSIN

CITY           SKY/WX    TMP DP  RH WIND       PRES   REMARKS
LA CROSSE      MIX PCPN  33  29  85 N5        29.80R WCI  29
SPARTA         MIX PCPN  30  30  99 E7        29.75F WCI  23
VIROQUA        CLOUDY    32  32 100 SE9       29.73F WCI  24
BOSCOBEL       RAIN      34  33  96 E5        29.78F FOG     WCI  30
PRAIRIE DU CHI LGT RAIN  34  33  96 E8        29.74F WCI  27
PLATTEVILLE    CLOUDY    34  34 100 W9        29.84R WCI  27
$$

WIZ056-057-062-063-064-067-068-201200-
SOUTH CENTRAL WISCONSIN

CITY           SKY/WX    TMP DP  RH WIND       PRES   REMARKS
REEDSBURG      LGT RAIN  31  31 100 CALM      29.80F
BARABOO/DELLS  MIX PCPN  31  31  99 W5        29.84R WCI  26
LONE ROCK      MIX PCPN  32  32 100 E7        29.80F FOG     WCI  26
MINERAL POINT  RAIN      36  36 100 NW5G23    29.82R WCI  32
MADISON        LGT RAIN  33  32  96 NW6       29.80R FOG     WCI  28
MIDDLETON      CLOUDY    33  33 100 NW7       29.79R WCI  27
WATERTOWN      LGT SNOW  34  34 100 NW3       29.78R
MONROE         RAIN      39  37  93 S7        29.76R VSB 3/4 WCI  34
JANESVILLE     RAIN      43  43 100 CALM      29.77R VSB 3/4
$$

WIZ051-052-058>065-066-070>072-201200-
SOUTHEAST WISCONSIN

CITY           SKY/WX    TMP DP  RH WIND       PRES   REMARKS
MILWAUKEE      LGT RAIN  40  40 100 CALM      29.77S VSB 1
WAUKESHA       LGT RAIN  43  43 100 SW5       29.78R
MILWAUKEE/TIMM LGT RAIN  36  34  93 CALM      29.78R VSB 1/2
RACINE         LGT RAIN  40  40 100 CALM      29.78F VSB 3/4
BURLINGTON     LGT RAIN  45  44  97 SW5       29.77S VSB 1/2
KENOSHA        LGT RAIN  52  51  97 W3        29.76F VSB 1/4
FOND DU LAC    FRZ RAIN  31  29  92 NE6       29.77S VSB 1/2 WCI  25
SHEBOYGAN      CLOUDY    34  34 100 CALM      29.78R FOG
WEST BEND      RAIN      34  34 100 CALM      29.78R VSB 1/2
JUNEAU         MIX PCPN  31  31  99 CALM      29.79R VSB 1/2
$$

LSZ147-162-201200-
LAKE SUPERIOR

STATION/POSITION TIME  TEMP    WIND        PRES    WAVE
                       AIR SEA DIR/SP/G            HT/PER
                 (UTC) (F)     (DEG/KT/KT) (MB)    (FT/S)
DEVILS ISLAND    1100   22      50/ 11/ 13 1013.4F
SAXON HARBOR     1040   20      60/  8/ 12 1011.2S
$$

LMZ867-665-643>646-201200-
LAKE MICHIGAN

STATION/POSITION TIME  TEMP    WIND        PRES    WAVE
                       AIR SEA DIR/SP/G            HT/PER
                 (UTC) (F)     (DEG/KT/KT) (MB)    (FT/S)
NORTHPORT PIER   1040   31                 1008.8F
KEWAUNEE LAKESHO 1100   33     320/  3/  4 1007.5
SHEBOYGAN LAKESH 1100   33     340/  7/  8 1009.0R
PORT WASHINGTON  1040   36      90/  2/  2 1009.5R
MILWAUKEE LAKESH 1100   35     320/  3/  3   N/A
KENOSHA   LAKESH 1100           CALM  /  2 1008.5
$$

TC  - TEMPERATURE IN CELSIUS
VSB - VISIBILITY IN STATUTE MILES
WCI - WIND CHILL INDEX
HX  - HEAT INDEX





USA.gov is the U.S. government's official web portal to all federal, state and local government web resources and services.